Flag for Mexico Weather past 2 weeks in Querétaro, Querétaro, Mexico

Now
73 °F

Broken clouds.


Feels Like: 77 °F
Forecast: 46 / 73 °F
Wind: 9 mph from Northwest

Location: Queretaro - Qro.

Current Time: Dec 27, 2014 at 6:16:50 PM

Latest Report: Dec 27, 2014 at 4:50 PM


Visibility: 12 mi

Pressure: 30.23 "Hg

Humidity: 33%

Dew point: 43 °F

Location of QuerétaroLocation

Historic Weather in Querétaro — Graph

°F

Querétaro temperature yesterday

Maximum temperature yesterday: 70 °F (at 1:45 PM)
Minimum temperature yesterday: 39 °F (at 7:45 AM)
Average temperature yesterday: 57 °F

Past Weeks' High & Low Weather Summary

 TemperatureHumidityPressure
High77 °F (Dec 18, 2:50 PM)100% (Dec 14, 4:45 AM)30.48 "Hg (Dec 14, 4:45 AM)
Low39 °F (Dec 26, 7:45 AM)21% (Dec 19, 1:45 PM)30.00 "Hg (Dec 23, 2:45 PM)
Average58 °F62%30.25 "Hg
* Reported Dec 12 4:45 PM — Dec 27 4:50 PM, Querétaro, Weather by CustomWeather, © 2014

Note: Actual official high and low records may vary slightly from our data, if they occured in-between our weather recording intervals... More about our weather records

Advertising

Querétaro weather history for previous 24 hours

 ConditionsComfort  
Time TempWeatherWind HumidityBarometerVisibility
4:50 PM
Dec 27
73 °FBroken clouds.9 mph33%30.23 "Hg12 mi
3:50 PM73 °FPartly sunny.12 mph31%30.22 "Hg12 mi
2:45 PM73 °FPartly sunny.6 mph31%30.24 "Hg12 mi
1:50 PM72 °FPartly sunny.No wind33%30.26 "Hg12 mi
12:52 PM72 °FPartly sunny.5 mph38%30.29 "Hg12 mi
10:50 AM64 °FPartly sunny.No wind49%30.37 "Hg10 mi
9:53 AM63 °FPartly sunny.5 mph52%30.39 "Hg10 mi
8:50 AM55 °FPartly sunny.6 mph67%30.38 "Hg10 mi
7:50 AM45 °FBroken clouds.5 mph81%30.35 "Hg8 mi
6:45 AM41 °FPassing clouds.No wind87%30.32 "Hg8 mi
5:45 AM43 °FPassing clouds.No wind93%30.31 "Hg8 mi
4:45 AM45 °FPassing clouds.No wind93%30.31 "Hg8 mi
3:45 AM46 °FPassing clouds.No wind82%30.30 "Hg10 mi
1:45 AM50 °FPassing clouds.No wind82%30.30 "Hg10 mi
12:45 AM52 °FPassing clouds.No wind77%30.31 "Hg10 mi
11:45 PM
Dec 26
54 °FPassing clouds.6 mph72%30.31 "Hg10 mi
10:45 PM54 °FPassing clouds.No wind72%30.32 "Hg10 mi
9:45 PM61 °FPartly cloudy.5 mph55%30.32 "Hg10 mi
8:48 PM61 °FPartly cloudy.6 mph55%30.31 "Hg8 mi
7:45 PM63 °FPartly cloudy.7 mph52%30.29 "Hg10 mi
7:00 PM63 °FPartly cloudy.8 mph52%30.27 "Hg10 mi
Weather by CustomWeather, © 2014

See weather overviewHow to use our weather pages